This demonstration page uses our WeatherBlox Daily Observations layout. Learn more.

40.92945, -100.16068

Hourly Observations for May 8, 2016

Temp ( °F °C ) Dew Point ( °F °C ) Humidity (%) Winds ( mph kmh ) Pressure ( in mb ) Visibility ( mi km ) Precip ( " mm )
12:15 am 00:15 Partly Cloudy 54 12 45 7.4 74 74 E 21 33 29.77 1008 7 11.26538 N/A
12:35 am 00:35 Partly Cloudy with Thunderstorms 54 12.2 44 6.5 68 68 ENE 16 26 29.8 1009 7 11.26538 N/A
12:55 am 00:55 Mostly Cloudy with Light Rain 54 12 44 6.7 70 70 NE 15 24 29.8 1009 7 11.26538 0 0
1:15 am 01:15 Partly Cloudy with Light Rain 52 11.3 44 6.9 75 75 ENE 18 30 29.83 1010 7 11.26538 N/A
1:35 am 01:35 Partly Cloudy 53 11.4 44 6.4 72 72 ENE 22 35 29.8 1009 7 11.26538 N/A
1:55 am 01:55 Partly Cloudy 52 11.2 43 6.3 72 72 ENE 22 35 29.83 1010 7 11.26538 0.01 0.254
2:15 am 02:15 Mostly Cloudy with Nearby Thunderstorms 52 11.2 43 6.3 72 72 ENE 21 33 29.77 1008 7 11.26538 N/A
2:35 am 02:35 Cloudy 51 10.7 43 6 73 73 ENE 18 30 29.8 1009 7 11.26538 N/A
2:55 am 02:55 Cloudy 51 10.7 43 5.9 72 72 NE 18 30 29.8 1009 7 11.26538 N/A
3:15 am 03:15 Mostly Cloudy 50 10.1 43 5.9 75 75 ENE 17 28 29.8 1009 10 16.0934 N/A
3:35 am 03:35 Mostly Cloudy 51 10.6 43 5.9 73 73 ENE 14 22 29.8 1009 10 16.0934 N/A
3:55 am 03:55 Cloudy 51 10.6 43 5.9 73 73 N 10 17 29.8 1009 10 16.0934 0 0
4:15 am 04:15 Mostly Cloudy 51 10.4 42 5.8 73 73 NE 15 24 29.77 1008 10 16.0934 N/A
4:35 am 04:35 Partly Cloudy 51 10.3 42 5.5 72 72 ENE 16 26 29.77 1008 10 16.0934 N/A
4:55 am 04:55 Clear 50 10 41 5.2 72 72 ENE 14 22 29.77 1008 10 16.0934 N/A
5:15 am 05:15 Clear 49 9.5 42 5.3 75 75 ENE 13 20 29.77 1008 10 16.0934 N/A
5:35 am 05:35 Clear 49 9.3 41 5 75 75 ENE 16 26 29.74 1007 10 16.0934 N/A
5:55 am 05:55 Clear 48 9 41 5 76 76 ENE 13 20 29.74 1007 10 16.0934 N/A
6:15 am 06:15 Clear 48 8.7 41 5 78 78 E 14 22 29.74 1007 10 16.0934 N/A
6:35 am 06:35 Sunny 47 8.5 41 5 79 79 ENE 13 20 29.74 1007 7 11.26538 N/A
6:55 am 06:55 Sunny 47 8.5 41 5 79 79 Calm 29.77 1008 7 11.26538 0 0
7:15 am 07:15 Partly Cloudy 47 8.6 41 5.1 79 79 N 5 7 29.77 1008 7 11.26538 N/A
7:35 am 07:35 Mostly Cloudy 49 9.3 42 5.7 78 78 N 5 7 29.77 1008 7 11.26538 N/A
7:55 am 07:55 Cloudy 50 10 42 5.8 75 75 NNE 8 13 29.77 1008 7 11.26538 N/A
8:15 am 08:15 Cloudy 50 10.1 43 6.2 77 77 NE 9 15 29.77 1008 7 11.26538 N/A
8:35 am 08:35 Cloudy 51 10.7 44 6.7 77 77 NE 12 19 29.71 1006 7 11.26538 N/A
8:55 am 08:55 Cloudy 53 11.5 45 7.1 75 75 NE 8 13 29.74 1007 10 16.0934 N/A
9:15 am 09:15 Cloudy 53 11.5 44 6.8 73 73 ENE 9 15 29.74 1007 10 16.0934 N/A
9:35 am 09:35 Cloudy 54 12 45 7.4 74 74 ENE 10 17 29.74 1007 7 11.26538 N/A
9:55 am 09:55 Cloudy 54 12.3 46 7.7 74 74 NE 10 17 29.74 1007 10 16.0934 N/A
10:15 am 10:15 Cloudy 55 13 47 8.1 72 72 ENE 9 15 29.71 1006 10 16.0934 N/A
10:35 am 10:35 Cloudy 56 13.5 48 8.8 73 73 ENE 10 17 29.71 1006 10 16.0934 N/A
10:55 am 10:55 Cloudy 57 13.8 47 8.6 71 71 ENE 9 15 29.68 1005 10 16.0934 N/A
11:15 am 11:15 Cloudy 59 14.9 49 9.5 70 70 NE 8 13 29.68 1005 7 11.26538 N/A
11:35 am 11:35 Mostly Cloudy 61 15.9 51 10.6 71 71 E 8 13 29.68 1005 7 11.26538 N/A
11:55 am 11:55 Partly Cloudy 62 16.5 51 10.6 68 68 E 9 15 29.68 1005 10 16.0934 N/A
12:15 pm 12:15 Partly Cloudy 63 17.3 52 11.2 68 68 E 8 13 29.65 1004 7 11.26538 N/A
12:35 pm 12:35 Partly Cloudy 64 18 54 12 68 68 E 12 19 29.65 1004 7 11.26538 N/A
12:55 pm 12:55 Mostly Cloudy 65 18.3 54 12 67 67 ESE 8 13 29.62 1003 7 11.26538 N/A
1:15 pm 13:15 Mostly Cloudy 66 18.8 54 12.2 66 66 E 10 17 29.62 1003 10 16.0934 N/A
1:35 pm 13:35 Partly Cloudy 68 19.8 56 13.4 67 67 E 9 15 29.62 1003 10 16.0934 N/A
1:55 pm 13:55 Hazy 69 20.8 56 13.2 62 62 ESE 9 15 29.59 1002 5 8.0467 N/A
2:15 pm 14:15 Partly Cloudy 70 21.2 57 13.8 63 63 SE 9 15 29.56 1001 10 16.0934 N/A
2:35 pm 14:35 Partly Cloudy 70 21.1 56 13.1 60 60 SE 12 19 29.56 1001 10 16.0934 N/A
2:55 pm 14:55 Partly Cloudy 71 21.9 58 14.5 63 63 SE 9 15 29.56 1001 10 16.0934 N/A
3:15 pm 15:15 Mostly Cloudy 72 22.2 57 14.1 60 60 ESE 8 13 29.56 1001 10 16.0934 N/A
3:35 pm 15:35 Mostly Cloudy 73 22.5 58 14.7 61 61 SE 9 15 29.53 1000 10 16.0934 N/A
3:55 pm 15:55 Mostly Cloudy 71 21.7 57 14.1 62 62 E 9 15 29.53 1000 10 16.0934 N/A
4:15 pm 16:15 Mostly Cloudy with Haze 72 22.1 57 13.9 60 60 SE 9 15 29.5 999 5 8.0467 N/A
4:35 pm 16:35 Partly Cloudy 74 23.5 57 13.9 55 55 SSE 13 20 29.47 998 10 16.0934 N/A
4:55 pm 16:55 Partly Cloudy 72 22.3 56 13.3 57 57 SSE 17 28 29.5 999 10 16.0934 N/A
5:15 pm 17:15 Partly Cloudy 71 21.5 56 13.1 59 59 SSE 17 28 29.47 998 10 16.0934 N/A
5:35 pm 17:35 Sunny with Nearby Thunderstorms 70 21.1 56 13.5 62 62 SSE 15 24 29.47 998 10 16.0934 N/A
5:55 pm 17:55 Partly Cloudy 70 20.9 56 13.5 63 63 SSE 10 17 29.47 998 10 16.0934 N/A
6:15 pm 18:15 Partly Cloudy with Nearby Thunderstorms 71 21.9 56 13.6 59 59 S 12 19 29.47 998 10 16.0934 N/A
6:35 pm 18:35 Partly Cloudy 69 20.7 57 13.7 64 64 S 9 15 29.47 998 10 16.0934 N/A
6:55 pm 18:55 Partly Cloudy 69 20.4 57 14 67 67 SE 9 15 29.47 998 10 16.0934 N/A
7:15 pm 19:15 Sunny 69 20.3 56 13.6 66 66 SSE 8 13 29.47 998 10 16.0934 N/A
7:35 pm 19:35 Sunny 67 19.7 56 13.5 68 68 ESE 7 11 29.47 998 10 16.0934 N/A
7:55 pm 19:55 Partly Cloudy with Nearby Thunderstorms 67 19.5 56 13.4 68 68 SSE 7 11 29.47 998 10 16.0934 N/A
8:15 pm 20:15 Mostly Cloudy with Nearby Thunderstorms 64 17.7 51 10.6 63 63 S 33 54 29.56 1001 7 11.26538 0.01 0.254
8:35 pm 20:35 Cloudy 57 14 49 9.5 75 75 SW 31 50 29.59 1002 7 11.26538 0.08 2.032
8:55 pm 20:55 Cloudy with Thunderstorms 56 13.1 49 9.7 80 80 SW 21 33 29.65 1004 5 8.0467 0.12 3.048
9:15 pm 21:15 Cloudy with Rain 55 12.6 50 10 84 84 WSW 10 17 29.68 1005 7 11.26538 0.05 1.27
9:35 pm 21:35 Cloudy with Rain 54 12.1 50 10 87 87 N 12 19 29.62 1003 10 16.0934 0.07 1.778
9:55 pm 21:55 Mostly Cloudy 54 12.1 50 9.8 86 86 N 6 9 29.65 1004 10 16.0934 0.07 1.778
10:15 pm 22:15 Partly Cloudy 54 12 50 9.8 87 87 NNE 8 13 29.65 1004 10 16.0934 N/A
10:35 pm 22:35 Clear 53 11.6 49 9.7 88 88 NE 8 13 29.65 1004 10 16.0934 N/A
10:55 pm 22:55 Clear 53 11.5 49 9.6 88 88 N 8 13 29.65 1004 10 16.0934 N/A
11:15 pm 23:15 Clear 52 11.3 49 9.3 88 88 NNE 8 13 29.65 1004 10 16.0934 N/A
11:35 pm 23:35 Clear 52 11 48 9 88 88 N 7 11 29.65 1004 10 16.0934 N/A
11:55 pm 23:55 Clear 51 10.4 47 8.3 87 87 NNE 6 9 29.65 1004 10 16.0934 N/A

Powered by AerisWeather